Location: Unnamed
(47.6264°N, 122.3366°W)
Time: 07:30:57
(UTC-07:00)

X-37B - Pass Details

Date: 27 June 2021
Orbit: 383 x 392 km, 45.0° (Epoch: 01 July)

Event Time Altitude Azimuth Distance (km) Brightness Sun altitude
Rises 22:04:17 0° 254° (WSW) 2,255 4.8 -7.5°
Reaches altitude 10° 22:06:23 10° 248° (WSW) 1,402 3.7 -7.7°
Maximum altitude 22:09:26 49° 173° (S) 505 0.8 -8.0°
Drops below altitude 10° 22:12:30 10° 97° (E) 1,402 3.0 -8.4°
Enters shadow 22:13:29 - 94° (E) 1,800 3.5 -8.5°
